Location: Krakow
(50.0830°N, 19.9170°E)
Time: 05:40:13
(UTC+01:00)

SR - Pass Details

Date: 09 February 2023
Orbit: 582 x 867 km, 66.7° (Epoch: 20 March)

Event Time Altitude Azimuth Distance (km) Brightness Sun altitude
Rises 19:12:02 0° 326° (NW) 2,903 ? -23.5°
Reaches altitude 10° 19:14:56 10° 345° (NNW) 1,958 ? -24.0°
Enters shadow 19:16:40 16° 6° (N) 1,569 ? -24.3°
Maximum altitude 19:18:02 19° 30° (NNE) 1,450 - -24.5°
Drops below altitude 10° 19:21:04 10° 76° (ENE) 1,910 - -25.0°
Sets 19:23:52 0° 95° (E) 2,804 - -25.4°
